,,Stat6,,Stat2,,Stat8,,Stat9,,Stat10,,Wind1,,Wind1,
time,status,PA1M_AVG,status,PR1M_SUM,status,RH1M_AVG,status,SR1M_AVG,status,TA1M_AVG,status,W1dAve1m,status,W1sAve1m,
2005-07-05, 00:00:00,VALID,917.666,VALID,0,VALID,94.334,VALID,0,VALID,18.4758,VALID,130,VALID,0.949396,
2005-07-05, 00:01:00,VALID,917.658,VALID,0,VALID,94.7117,VALID,0,VALID,18.4761,VALID,127,VALID,0.881981,
2005-07-05, 00:02:00,VALID,917.667,VALID,0,VALID,94.8401,VALID,-0.0169808,VALID,18.4565,VALID,132,VALID,0.897195,
2005-07-05, 00:03:00,VALID,917.657,VALID,0,VALID,94.8515,VALID,0,VALID,18.4306,VALID,99,VALID,0.68006,
2005-07-05, 00:04:00,VALID,917.663,VALID,0,VALID,94.9914,VALID,0.0339617,VALID,18.4143,VALID,85,VALID,0.858073,
2005-07-05, 00:05:00,VALID,917.66,VALID,0,VALID,95.1643,VALID,0.0169808,VALID,18.3921,VALID,103,VALID,0.910156,
2005-07-05, 00:06:00,VALID,917.675,VALID,0,VALID,94.9978,VALID,0.0509425,VALID,18.3631,VALID,110,VALID,0.871449,
2005-07-05, 00:07:00,VALID,917.669,VALID,0,VALID,94.9316,VALID,0.0339617,VALID,18.3435,VALID,124,VALID,0.987179,
2005-07-05, 00:08:00,VALID,917.652,VALID,0,VALID,94.8884,VALID,0.0339617,VALID,18.3433,VALID,131,VALID,1.12518,
2005-07-05, 00:09:00,VALID,917.633,VALID,0,VALID,94.9126,VALID,0.0169808,VALID,18.3502,VALID,126,VALID,1.29287,
2005-07-05, 00:10:00,VALID,917.605,VALID,0,VALID,94.8477,VALID,0,VALID,18.3606,VALID,119,VALID,0.933293,
2005-07-05, 00:11:00,VALID,917.594,VALID,0,VALID,94.6849,VALID,0,VALID,18.3502,VALID,127,VALID,0.84707,
2005-07-05, 00:12:00,VALID,917.578,VALID,0,VALID,94.5896,VALID,0.0509425,VALID,18.3624,VALID,101,VALID,0.97619,
2005-07-05, 00:13:00,VALID,917.561,VALID,0,VALID,94.409,VALID,0.0169808,VALID,18.3753,VALID,118,VALID,1.04688,
2005-07-05, 00:14:00,VALID,917.539,VALID,0,VALID,94.3073,VALID,0.0509425,VALID,18.3848,VALID,100,VALID,1.29211,
2005-07-05, 00:15:00,VALID,917.515,VALID,0,VALID,93.9538,VALID,0.0339617,VALID,18.4046,VALID,106,VALID,1.51308,
2005-07-05, 00:16:00,VALID,917.518,VALID,0,VALID,93.983,VALID,0.0339617,VALID,18.4203,VALID,102,VALID,1.42696,
2005-07-05, 00:17:00,VALID,917.524,VALID,0,VALID,93.9907,VALID,0.0339617,VALID,18.4429,VALID,107,VALID,1.36944,
2005-07-05, 00:18:00,VALID,917.524,VALID,0,VALID,94.0186,VALID,0.0339617,VALID,18.4403,VALID,103,VALID,1.17951,
2005-07-05, 00:19:00,VALID,917.541,VALID,0,VALID,94.0364,VALID,0.0509425,VALID,18.4366,VALID,100,VALID,1.29762,
2005-07-05, 00:20:00,VALID,917.547,VALID,0,VALID,94.1051,VALID,0.0169808,VALID,18.408,VALID,98,VALID,1.18633,
2005-07-05, 00:21:00,VALID,917.563,VALID,0,VALID,94.245,VALID,0.0509425,VALID,18.3947,VALID,93,VALID,1.1088,
2005-07-05, 00:22:00,VALID,917.575,VALID,0,VALID,94.3353,VALID,0.0679233,VALID,18.3656,VALID,95,VALID,1.29483,
2005-07-05, 00:23:00,VALID,917.589,VALID,0,VALID,94.5413,VALID,0.0169808,VALID,18.3495,VALID,85,VALID,1.08129,
2005-07-05, 00:24:00,VALID,917.606,VALID,0,VALID,94.7447,VALID,0.0339617,VALID,18.3237,VALID,95,VALID,1.15334,
2005-07-05, 00:25:00,VALID,917.612,VALID,0,VALID,94.9126,VALID,0.0339617,VALID,18.3142,VALID,96,VALID,1.08448,
2005-07-05, 00:26:00,VALID,917.608,VALID,0,VALID,95.0868,VALID,0.0679233,VALID,18.2948,VALID,83,VALID,0.97526,
2005-07-05, 00:27:00,VALID,917.618,VALID,0,VALID,95.2127,VALID,0.0169808,VALID,18.2849,VALID,87,VALID,1.39528,
2005-07-05, 00:28:00,VALID,917.619,VALID,0,VALID,95.2813,VALID,0.0339617,VALID,18.2658,VALID,88,VALID,1.34487,
2005-07-05, 00:29:00,VALID,917.63,VALID,0,VALID,95.2737,VALID,0.0339617,VALID,18.2626,VALID,103,VALID,0.758929,
2005-07-05, 00:30:00,VALID,917.638,VALID,0,VALID,95.0791,VALID,0.0169808,VALID,18.2722,VALID,101,VALID,0.991071,
2005-07-05, 00:31:00,VALID,917.63,VALID,0,VALID,94.7969,VALID,0.0849042,VALID,18.2884,VALID,86,VALID,0.859561,
2005-07-05, 00:32:00,VALID,917.624,VALID,0,VALID,94.8909,VALID,0.0509425,VALID,18.2946,VALID,92,VALID,1.11421,
2005-07-05, 00:33:00,VALID,917.61,VALID,0,VALID,95.0067,VALID,0.0679233,VALID,18.317,VALID,91,VALID,0.743521,
2005-07-05, 00:34:00,VALID,917.609,VALID,0,VALID,95.1783,VALID,0.0849042,VALID,18.317,VALID,88,VALID,0.701563,
2005-07-05, 00:35:00,VALID,917.602,VALID,0,VALID,95.3386,VALID,0.0679233,VALID,18.3234,VALID,81,VALID,0.630996,
2005-07-05, 00:36:00,VALID,917.591,VALID,0,VALID,95.4174,VALID,0.0509425,VALID,18.3303,VALID,84,VALID,0.787972,
2005-07-05, 00:37:00,VALID,917.592,VALID,0,VALID,95.4924,VALID,0.0679233,VALID,18.3497,VALID,91,VALID,0.644985,
2005-07-05, 00:38:00,VALID,917.586,VALID,0,VALID,95.603,VALID,0.0679233,VALID,18.3592,VALID,88,VALID,0.629542,
2005-07-05, 00:39:00,VALID,917.565,VALID,0,VALID,95.6679,VALID,0.0679233,VALID,18.3721,VALID,96,VALID,0.697917,
2005-07-05, 00:40:00,VALID,917.56,VALID,0,VALID,95.6488,VALID,0.0679233,VALID,18.3878,VALID,91,VALID,0.528525,
2005-07-05, 00:41:00,VALID,917.556,VALID,0,VALID,95.6514,VALID,0.0339617,VALID,18.3947,VALID,91,VALID,0.686141,
2005-07-05, 00:42:00,VALID,917.557,VALID,0,VALID,95.7137,VALID,-0.0339617,VALID,18.3859,VALID,80,VALID,0.759233,
2005-07-05, 00:43:00,VALID,917.544,VALID,0,VALID,95.7963,VALID,-0.0509425,VALID,18.3799,VALID,78,VALID,0.504906,
2005-07-05, 00:44:00,VALID,917.538,VALID,0,VALID,95.9286,VALID,-0.0339617,VALID,18.3541,VALID,78,VALID,0.589286,
2005-07-05, 00:45:00,VALID,917.526,VALID,0,VALID,96.1854,VALID,-0.0339617,VALID,18.3154,VALID,80,VALID,0.91369,
2005-07-05, 00:46:00,VALID,917.513,VALID,0,VALID,96.3914,VALID,-0.0169808,VALID,18.3119,VALID,69,VALID,0.886991,
2005-07-05, 00:47:00,VALID,917.502,VALID,0,VALID,96.4792,VALID,-0.0509425,VALID,18.2965,VALID,72,VALID,0.974787,
2005-07-05, 00:48:00,VALID,917.496,VALID,0,VALID,96.6763,VALID,-0.0509425,VALID,18.2829,VALID,72,VALID,0.849276,
2005-07-05, 00:49:00,VALID,917.495,VALID,0,VALID,96.9484,VALID,-0.0339617,VALID,18.2863,VALID,70,VALID,0.98952,
2005-07-05, 00:50:00,VALID,917.495,VALID,0,VALID,97.1112,VALID,-0.0169808,VALID,18.2699,VALID,79,VALID,1.02882,
2005-07-05, 00:51:00,VALID,917.491,VALID,0,VALID,97.218,VALID,-0.0169808,VALID,18.2635,VALID,65,VALID,0.97311,
2005-07-05, 00:52:00,VALID,917.487,VALID,0,VALID,97.3388,VALID,-0.0339617,VALID,18.251,VALID,76,VALID,0.95827,
2005-07-05, 00:53:00,VALID,917.471,VALID,0,VALID,97.4418,VALID,0,VALID,18.2314,VALID,81,VALID,1.06008,
2005-07-05, 00:54:00,VALID,917.473,VALID,0,VALID,97.3718,VALID,-0.0169808,VALID,18.2247,VALID,79,VALID,0.912064,
2005-07-05, 00:55:00,VALID,917.445,VALID,0,VALID,97.3566,VALID,-0.0169808,VALID,18.2344,VALID,78,VALID,0.768466,
2005-07-05, 00:56:00,VALID,917.433,VALID,0,VALID,97.3006,VALID,-0.0509425,VALID,18.228,VALID,81,VALID,0.697621,
2005-07-05, 00:57:00,VALID,917.413,VALID,0,VALID,97.0896,VALID,0.0679233,VALID,18.2307,VALID,89,VALID,0.654433,
2005-07-05, 00:58:00,VALID,917.392,VALID,0,VALID,97.0972,VALID,0.0679233,VALID,18.2236,VALID,91,VALID,0.785823,
2005-07-05, 00:59:00,VALID,917.375,VALID,0,VALID,97.0222,VALID,0.0679233,VALID,18.2268,VALID,95,VALID,0.865282,
2005-07-05, 01:00:00,VALID,917.352,VALID,0,VALID,96.8543,VALID,0.101885,VALID,18.2199,VALID,95,VALID,0.856641,
2005-07-05, 01:01:00,VALID,917.348,VALID,0,VALID,96.4169,VALID,0.0679233,VALID,18.2169,VALID,97,VALID,0.821181,
2005-07-05, 01:02:00,VALID,917.337,VALID,0,VALID,96.071,VALID,0.0509425,VALID,18.2268,VALID,97,VALID,0.815304,
2005-07-05, 01:03:00,VALID,917.317,VALID,0,VALID,96.0685,VALID,0.0849042,VALID,18.243,VALID,97,VALID,0.853795,
2005-07-05, 01:04:00,VALID,917.313,VALID,0,VALID,95.8345,VALID,0.0339617,VALID,18.2757,VALID,94,VALID,0.930233,
2005-07-05, 01:05:00,VALID,917.321,VALID,0,VALID,95.2178,VALID,0.0169808,VALID,18.2656,VALID,93,VALID,0.963299,
2005-07-05, 01:06:00,VALID,917.317,VALID,0,VALID,94.8325,VALID,0.0169808,VALID,18.269,VALID,92,VALID,0.865234,
2005-07-05, 01:07:00,VALID,917.313,VALID,0,VALID,94.4878,VALID,0.0509425,VALID,18.2916,VALID,93,VALID,0.94786,
2005-07-05, 01:08:00,VALID,917.308,VALID,0,VALID,93.9093,VALID,0.0509425,VALID,18.3048,VALID,98,VALID,0.868096,
2005-07-05, 01:09:00,VALID,917.285,VALID,0,VALID,93.6143,VALID,0.0849042,VALID,18.3237,VALID,100,VALID,0.871366,
2005-07-05, 01:10:00,VALID,917.258,VALID,0,VALID,93.2925,VALID,0.0509425,VALID,18.3398,VALID,99,VALID,0.870486,
2005-07-05, 01:11:00,VALID,917.247,VALID,0,VALID,92.8704,VALID,0.0679233,VALID,18.3629,VALID,94,VALID,0.982777,
2005-07-05, 01:12:00,VALID,917.234,VALID,0,VALID,92.8475,VALID,-0.0169808,VALID,18.3963,VALID,95,VALID,0.744855,
2005-07-05, 01:13:00,VALID,917.224,VALID,0,VALID,92.7381,VALID,0,VALID,18.412,VALID,95,VALID,0.735899,
2005-07-05, 01:14:00,VALID,917.205,VALID,0,VALID,92.4431,VALID,-0.0679233,VALID,18.3958,VALID,95,VALID,0.659702,
2005-07-05, 01:15:00,VALID,917.203,VALID,0,VALID,92.2803,VALID,-0.0339617,VALID,18.3832,VALID,95,VALID,0.664663,
2005-07-05, 01:16:00,VALID,917.194,VALID,0,VALID,91.8238,VALID,-0.0509425,VALID,18.3735,VALID,95,VALID,0.724964,
2005-07-05, 01:17:00,VALID,917.181,VALID,0,VALID,90.9375,VALID,-0.0339617,VALID,18.3903,VALID,95,VALID,0.692522,
2005-07-05, 01:18:00,VALID,917.175,VALID,0,VALID,90.5255,VALID,-0.0509425,VALID,18.4286,VALID,95,VALID,0.671693,
2005-07-05, 01:19:00,VALID,917.168,VALID,0,VALID,90.4391,VALID,-0.0339617,VALID,18.4768,VALID,100,VALID,0.547991,
2005-07-05, 01:20:00,VALID,917.158,VALID,0,VALID,90.8434,VALID,-0.0339617,VALID,18.5088,VALID,101,VALID,0.484553,
2005-07-05, 01:21:00,VALID,917.146,VALID,0,VALID,90.7468,VALID,-0.0339617,VALID,18.5217,VALID,103,VALID,0.584872,
2005-07-05, 01:22:00,VALID,917.139,VALID,0,VALID,89.9113,VALID,-0.0509425,VALID,18.5185,VALID,113,VALID,0.780134,
2005-07-05, 01:23:00,VALID,917.13,VALID,0,VALID,90.7544,VALID,-0.0679233,VALID,18.5547,VALID,113,VALID,0.425114,
2005-07-05, 01:24:00,VALID,917.128,VALID,0,VALID,91.3839,VALID,-0.101885,VALID,18.5741,VALID,113,VALID,0.131541,
2005-07-05, 01:25:00,VALID,917.137,VALID,0,VALID,91.7437,VALID,-0.0849042,VALID,18.5416,VALID,113,VALID,0.329578,
2005-07-05, 01:26:00,VALID,917.136,VALID,0,VALID,92.0921,VALID,-0.0679233,VALID,18.4996,VALID,113,VALID,0.0822173,
2005-07-05, 01:27:00,VALID,917.148,VALID,0,VALID,92.6758,VALID,0,VALID,18.4498,VALID,113,VALID,0.0796131,
2005-07-05, 01:28:00,VALID,917.149,VALID,0,VALID,92.6733,VALID,0.0339617,VALID,18.3887,VALID,113,VALID,0.383176,
2005-07-05, 01:29:00,VALID,917.157,VALID,0,VALID,93.5214,VALID,0.0679233,VALID,18.3269,VALID,113,VALID,0.134301,
2005-07-05, 01:30:00,VALID,917.157,VALID,0,VALID,94.0733,VALID,0.0339617,VALID,18.2755,VALID,113,VALID,0,
2005-07-05, 01:31:00,VALID,917.157,VALID,0,VALID,94.217,VALID,0.101885,VALID,18.2077,VALID,113,VALID,0,
2005-07-05, 01:32:00,VALID,917.154,VALID,0,VALID,94.2577,VALID,0.101885,VALID,18.1362,VALID,113,VALID,0,
2005-07-05, 01:33:00,VALID,917.148,VALID,0,VALID,93.6664,VALID,0.0509425,VALID,18.0949,VALID,113,VALID,0,
2005-07-05, 01:34:00,VALID,917.15,VALID,0,VALID,94.3086,VALID,0.0169808,VALID,18.0657,VALID,113,VALID,0,
2005-07-05, 01:35:00,VALID,917.137,VALID,0,VALID,95.0397,VALID,0.0339617,VALID,18.0431,VALID,113,VALID,0.182736,
2005-07-05, 01:36:00,VALID,917.123,VALID,0,VALID,95.425,VALID,0,VALID,17.9947,VALID,113,VALID,0.263417,
2005-07-05, 01:37:00,VALID,917.128,VALID,0,VALID,95.1224,VALID,0.0169808,VALID,17.9333,VALID,113,VALID,0.310404,
2005-07-05, 01:38:00,VALID,917.124,VALID,0,VALID,94.7701,VALID,0.0339617,VALID,17.9271,VALID,113,VALID,0.471657,
2005-07-05, 01:39:00,VALID,917.123,VALID,0,VALID,94.4065,VALID,0.0339617,VALID,17.9398,VALID,113,VALID,0.399554,
2005-07-05, 01:40:00,VALID,917.117,VALID,0,VALID,93.8813,VALID,0.0849042,VALID,17.9527,VALID,113,VALID,0.246838,
2005-07-05, 01:41:00,VALID,917.115,VALID,0,VALID,93.8063,VALID,0.0509425,VALID,17.9626,VALID,113,VALID,0.00308866,
2005-07-05, 01:42:00,VALID,917.115,VALID,0,VALID,93.9665,VALID,0.0339617,VALID,17.9661,VALID,113,VALID,0,
2005-07-05, 01:43:00,VALID,917.101,VALID,0,VALID,93.7427,VALID,0.0679233,VALID,17.9562,VALID,113,VALID,0.0419034,
2005-07-05, 01:44:00,VALID,917.097,VALID,0,VALID,93.9665,VALID,0.0339617,VALID,17.9338,VALID,113,VALID,0.34702,
2005-07-05, 01:45:00,VALID,917.104,VALID,0,VALID,93.3777,VALID,0.0679233,VALID,17.9077,VALID,103,VALID,0.605469,
2005-07-05, 01:46:00,VALID,917.101,VALID,0,VALID,92.8042,VALID,0.0339617,VALID,17.8946,VALID,90,VALID,0.663477,
2005-07-05, 01:47:00,VALID,917.111,VALID,0,VALID,93.0459,VALID,0.0509425,VALID,17.9138,VALID,97,VALID,0.72237,
2005-07-05, 01:48:00,VALID,917.105,VALID,0,VALID,92.8627,VALID,0.0679233,VALID,17.9269,VALID,98,VALID,0.782885,
2005-07-05, 01:49:00,VALID,917.094,VALID,0,VALID,92.8081,VALID,0.0339617,VALID,17.9693,VALID,101,VALID,1.01153,
2005-07-05, 01:50:00,VALID,917.11,VALID,0,VALID,92.4126,VALID,0.0339617,VALID,17.9887,VALID,109,VALID,1.09699,
2005-07-05, 01:51:00,VALID,917.109,VALID,0,VALID,92.157,VALID,0.0509425,VALID,18.0242,VALID,122,VALID,0.986413,
2005-07-05, 01:52:00,VALID,917.109,VALID,0,VALID,92.2435,VALID,0.0849042,VALID,18.0431,VALID,124,VALID,0.982639,
2005-07-05, 01:53:00,VALID,917.103,VALID,0,VALID,92.3414,VALID,0.0679233,VALID,18.0788,VALID,125,VALID,0.91915,
2005-07-05, 01:54:00,VALID,917.096,VALID,0,VALID,92.2435,VALID,0.0679233,VALID,18.0887,VALID,125,VALID,0.795573,
2005-07-05, 01:55:00,VALID,917.102,VALID,0,VALID,92.6618,VALID,0.0679233,VALID,18.0913,VALID,125,VALID,0.609575,
2005-07-05, 01:56:00,VALID,917.079,VALID,0,VALID,92.9823,VALID,0.0679233,VALID,18.1012,VALID,125,VALID,0.188408,
2005-07-05, 01:57:00,VALID,917.08,VALID,0,VALID,93.2569,VALID,-0.0169808,VALID,18.0991,VALID,125,VALID,0.196837,
2005-07-05, 01:58:00,VALID,917.06,VALID,0,VALID,93.3688,VALID,-0.0509425,VALID,18.0834,VALID,125,VALID,0.130335,
2005-07-05, 01:59:00,VALID,917.044,VALID,0,VALID,93.6143,VALID,-0.0509425,VALID,18.0739,VALID,125,VALID,0,
2005-07-05, 02:00:00,VALID,917.026,VALID,0,VALID,93.1628,VALID,-0.0509425,VALID,18.0474,VALID,125,VALID,0,
2005-07-05, 02:01:00,VALID,917.011,VALID,0,VALID,91.6433,VALID,-0.0849042,VALID,18.0281,VALID,125,VALID,0,
2005-07-05, 02:02:00,VALID,916.984,VALID,0,VALID,90.4238,VALID,-0.0339617,VALID,18.0606,VALID,125,VALID,0.154345,
2005-07-05, 02:03:00,VALID,916.966,VALID,0,VALID,89.8198,VALID,0,VALID,18.1323,VALID,125,VALID,0.00994318,
2005-07-05, 02:04:00,VALID,916.94,VALID,0,VALID,89.7371,VALID,-0.0509425,VALID,18.1932,VALID,125,VALID,0.0963542,
2005-07-05, 02:05:00,VALID,916.931,VALID,0,VALID,91.1651,VALID,-0.0509425,VALID,18.2713,VALID,125,VALID,0.469703,
2005-07-05, 02:06:00,VALID,916.907,VALID,0,VALID,90.1339,VALID,-0.0509425,VALID,18.2513,VALID,125,VALID,0.526215,
2005-07-05, 02:07:00,VALID,916.912,VALID,0,VALID,89.3633,VALID,-0.0679233,VALID,18.2448,VALID,125,VALID,0.571733,
2005-07-05, 02:08:00,VALID,916.911,VALID,0,VALID,89.4205,VALID,-0.0679233,VALID,18.2838,VALID,125,VALID,0.528942,
2005-07-05, 02:09:00,VALID,916.924,VALID,0,VALID,89.5006,VALID,-0.0339617,VALID,18.3059,VALID,125,VALID,0.594658,
2005-07-05, 02:10:00,VALID,916.929,VALID,0,VALID,90.6718,VALID,-0.0509425,VALID,18.3354,VALID,125,VALID,0.463299,
2005-07-05, 02:11:00,VALID,916.923,VALID,0,VALID,91.3101,VALID,-0.0679233,VALID,18.3061,VALID,125,VALID,0.379616,
2005-07-05, 02:12:00,VALID,916.922,VALID,0,VALID,91.169,VALID,0,VALID,18.2762,VALID,124,VALID,0.690358,
2005-07-05, 02:13:00,VALID,916.922,VALID,0,VALID,91.998,VALID,0.0509425,VALID,18.2533,VALID,124,VALID,0.692769,
2005-07-05, 02:14:00,VALID,916.909,VALID,0,VALID,91.6267,VALID,0.0509425,VALID,18.2047,VALID,124,VALID,0.827744,
2005-07-05, 02:15:00,VALID,916.904,VALID,0,VALID,92.5321,VALID,0.0509425,VALID,18.1726,VALID,124,VALID,0.857013,
2005-07-05, 02:16:00,VALID,916.903,VALID,0,VALID,92.9022,VALID,0.101885,VALID,18.127,VALID,123,VALID,0.548611,
2005-07-05, 02:17:00,VALID,916.898,VALID,0,VALID,93.1527,VALID,0.0679233,VALID,18.0853,VALID,118,VALID,0.575347,
2005-07-05, 02:18:00,VALID,916.881,VALID,0,VALID,93.543,VALID,0.0679233,VALID,18.0332,VALID,117,VALID,0.488554,
2005-07-05, 02:19:00,VALID,916.875,VALID,0,VALID,93.8597,VALID,0.0679233,VALID,17.979,VALID,117,VALID,0.43559,
2005-07-05, 02:20:00,VALID,916.871,VALID,0,VALID,94.3251,VALID,0.0849042,VALID,17.9368,VALID,117,VALID,0.334121,
2005-07-05, 02:21:00,VALID,916.857,VALID,0,VALID,94.7816,VALID,0.0849042,VALID,17.9011,VALID,117,VALID,0.322266,
2005-07-05, 02:22:00,VALID,916.854,VALID,0,VALID,95.1605,VALID,0.0509425,VALID,17.8752,VALID,117,VALID,0.152431,
2005-07-05, 02:23:00,VALID,916.841,VALID,0,VALID,95.397,VALID,0.101885,VALID,17.8527,VALID,117,VALID,0.326705,
2005-07-05, 02:24:00,VALID,916.824,VALID,0,VALID,95.7429,VALID,0.0679233,VALID,17.8206,VALID,117,VALID,0.490327,
2005-07-05, 02:25:00,VALID,916.803,VALID,0,VALID,96.0723,VALID,0.0339617,VALID,17.7881,VALID,117,VALID,0.301448,
2005-07-05, 02:26:00,VALID,916.788,VALID,0,VALID,96.2109,VALID,0.0679233,VALID,17.7655,VALID,117,VALID,0.049782,
2005-07-05, 02:27:00,VALID,916.77,VALID,0,VALID,96.4092,VALID,-0.0509425,VALID,17.7408,VALID,117,VALID,0.0120908,
2005-07-05, 02:28:00,VALID,916.757,VALID,0,VALID,96.6089,VALID,-0.0339617,VALID,17.7247,VALID,117,VALID,0,
2005-07-05, 02:29:00,VALID,916.736,VALID,0,VALID,96.9433,VALID,0,VALID,17.7221,VALID,117,VALID,0.112847,
2005-07-05, 02:30:00,VALID,916.714,VALID,0,VALID,97.1124,VALID,-0.0169808,VALID,17.7085,VALID,117,VALID,0.209604,
2005-07-05, 02:31:00,VALID,916.713,VALID,0,VALID,96.9637,VALID,-0.0679233,VALID,17.6926,VALID,117,VALID,0.0438262,
2005-07-05, 02:32:00,VALID,916.7,VALID,0,VALID,97.0311,VALID,-0.0169808,VALID,17.6767,VALID,117,VALID,0.101902,
2005-07-05, 02:33:00,VALID,916.697,VALID,0,VALID,97.0896,VALID,-0.0169808,VALID,17.6509,VALID,117,VALID,0.0452009,
2005-07-05, 02:34:00,VALID,916.695,VALID,0,VALID,97.1417,VALID,-0.0169808,VALID,17.6281,VALID,117,VALID,0,
2005-07-05, 02:35:00,VALID,916.683,VALID,0,VALID,97.2879,VALID,-0.0509425,VALID,17.6085,VALID,117,VALID,0,
2005-07-05, 02:36:00,VALID,916.68,VALID,0,VALID,97.2994,VALID,0,VALID,17.6057,VALID,117,VALID,0.0965278,
2005-07-05, 02:37:00,VALID,916.67,VALID,0,VALID,96.6623,VALID,-0.0169808,VALID,17.5962,VALID,117,VALID,0.341332,
2005-07-05, 02:38:00,VALID,916.666,VALID,0,VALID,95.5776,VALID,-0.0849042,VALID,17.6094,VALID,117,VALID,0.371548,
2005-07-05, 02:39:00,VALID,916.653,VALID,0,VALID,95.6183,VALID,-0.0679233,VALID,17.6735,VALID,117,VALID,0.35957,
2005-07-05, 02:40:00,VALID,916.659,VALID,0,VALID,95.5878,VALID,-0.0679233,VALID,17.732,VALID,117,VALID,0.287997,
2005-07-05, 02:41:00,VALID,916.658,VALID,0,VALID,95.0804,VALID,-0.0339617,VALID,17.7417,VALID,117,VALID,0.234947,
2005-07-05, 02:42:00,VALID,916.669,VALID,0,VALID,94.2793,VALID,-0.0679233,VALID,17.7378,VALID,117,VALID,0.206555,
2005-07-05, 02:43:00,VALID,916.672,VALID,0,VALID,93.098,VALID,-0.0339617,VALID,17.7742,VALID,117,VALID,0.225109,
2005-07-05, 02:44:00,VALID,916.673,VALID,0,VALID,91.82,VALID,-0.0679233,VALID,17.8028,VALID,117,VALID,0.197599,
2005-07-05, 02:45:00,VALID,916.674,VALID,0,VALID,92.2053,VALID,-0.0509425,VALID,17.9068,VALID,117,VALID,0.160247,
2005-07-05, 02:46:00,VALID,916.67,VALID,0,VALID,91.4754,VALID,-0.101885,VALID,17.9481,VALID,117,VALID,0.00390625,
2005-07-05, 02:47:00,VALID,916.669,VALID,0,VALID,91.5657,VALID,-0.0509425,VALID,17.9967,VALID,117,VALID,0,
2005-07-05, 02:48:00,VALID,916.669,VALID,0,VALID,91.4106,VALID,-0.0679233,VALID,18.0062,VALID,117,VALID,0.00497159,
2005-07-05, 02:49:00,VALID,916.673,VALID,0,VALID,91.0329,VALID,-0.0509425,VALID,18.0059,VALID,117,VALID,0.0969893,
2005-07-05, 02:50:00,VALID,916.679,VALID,0,VALID,91.8887,VALID,-0.101885,VALID,18.0188,VALID,117,VALID,0,
2005-07-05, 02:51:00,VALID,916.667,VALID,0,VALID,91.5593,VALID,-0.0509425,VALID,18.0292,VALID,117,VALID,0,
2005-07-05, 02:52:00,VALID,916.672,VALID,0,VALID,91.8009,VALID,-0.0679233,VALID,18.0096,VALID,117,VALID,0,
2005-07-05, 02:53:00,VALID,916.669,VALID,0,VALID,91.4017,VALID,-0.0849042,VALID,18.0032,VALID,117,VALID,0.0267078,
2005-07-05, 02:54:00,VALID,916.668,VALID,0,VALID,90.1186,VALID,-0.0169808,VALID,18.0038,VALID,117,VALID,0.0818452,
2005-07-05, 02:55:00,VALID,916.68,VALID,0,VALID,90.5917,VALID,-0.0339617,VALID,18.0255,VALID,117,VALID,0.0109012,
2005-07-05, 02:56:00,VALID,916.675,VALID,0,VALID,90.4213,VALID,-0.0509425,VALID,18.0484,VALID,117,VALID,0.142624,
2005-07-05, 02:57:00,VALID,916.704,VALID,0,VALID,90.481,VALID,-0.0849042,VALID,18.0712,VALID,117,VALID,0.216933,
2005-07-05, 02:58:00,VALID,916.702,VALID,0,VALID,89.8859,VALID,-0.101885,VALID,18.0709,VALID,117,VALID,0.0919331,
2005-07-05, 02:59:00,VALID,916.711,VALID,0,VALID,90.7277,VALID,-0.101885,VALID,18.1166,VALID,117,VALID,0,
2005-07-05, 03:00:00,VALID,916.729,VALID,0,VALID,90.8829,VALID,-0.101885,VALID,18.1166,VALID,117,VALID,0,
2005-07-05, 03:01:00,VALID,916.738,VALID,0,VALID,90.4747,VALID,-0.135847,VALID,18.1035,VALID,117,VALID,0.00111607,
2005-07-05, 03:02:00,VALID,916.745,VALID,0,VALID,90.1199,VALID,-0.101885,VALID,18.1071,VALID,117,VALID,0.000952744,
2005-07-05, 03:03:00,VALID,916.757,VALID,0,VALID,89.9851,VALID,-0.101885,VALID,18.1233,VALID,117,VALID,0.126715,
2005-07-05, 03:04:00,VALID,916.753,VALID,0,VALID,90.0423,VALID,-0.101885,VALID,18.1392,VALID,98,VALID,0.261896,
2005-07-05, 03:05:00,VALID,916.765,VALID,0,VALID,89.2501,VALID,-0.152827,VALID,18.1652,VALID,19,VALID,0.388139,
2005-07-05, 03:06:00,VALID,916.779,VALID,0,VALID,88.9716,VALID,-0.101885,VALID,18.2008,VALID,19,VALID,0.204942,
2005-07-05, 03:07:00,VALID,916.778,VALID,0,VALID,88.2583,VALID,-0.101885,VALID,18.2395,VALID,19,VALID,0.0970982,
2005-07-05, 03:08:00,VALID,916.788,VALID,0,VALID,88.4172,VALID,-0.118866,VALID,18.2681,VALID,19,VALID,0.0983232,
2005-07-05, 03:09:00,VALID,916.773,VALID,0,VALID,88.8139,VALID,-0.101885,VALID,18.287,VALID,19,VALID,0.165923,
2005-07-05, 03:10:00,VALID,916.773,VALID,0,VALID,90.2025,VALID,-0.101885,VALID,18.32,VALID,8,VALID,0.352325,
2005-07-05, 03:11:00,VALID,916.766,VALID,0,VALID,88.8343,VALID,-0.0849042,VALID,18.2875,VALID,346,VALID,0.116279,
2005-07-05, 03:12:00,VALID,916.763,VALID,0,VALID,88.8585,VALID,-0.0169808,VALID,18.3054,VALID,346,VALID,0.108422,
2005-07-05, 03:13:00,VALID,916.759,VALID,0,VALID,88.9869,VALID,0.0169808,VALID,18.325,VALID,346,VALID,0,
2005-07-05, 03:14:00,VALID,916.756,VALID,0,VALID,88.7237,VALID,0,VALID,18.3184,VALID,346,VALID,0,
2005-07-05, 03:15:00,VALID,916.755,VALID,0,VALID,89.3048,VALID,0,VALID,18.3211,VALID,346,VALID,0,
2005-07-05, 03:16:00,VALID,916.746,VALID,0,VALID,88.4986,VALID,0.0169808,VALID,18.3308,VALID,346,VALID,0.147507,
2005-07-05, 03:17:00,VALID,916.743,VALID,0,VALID,87.8183,VALID,0,VALID,18.3601,VALID,346,VALID,0.114955,
2005-07-05, 03:18:00,VALID,916.723,VALID,0,VALID,87.2817,VALID,0,VALID,18.4117,VALID,346,VALID,0.210764,
2005-07-05, 03:19:00,VALID,916.723,VALID,0,VALID,87.2944,VALID,0,VALID,18.4636,VALID,346,VALID,0.122768,
2005-07-05, 03:20:00,VALID,916.722,VALID,0,VALID,86.7845,VALID,0.0169808,VALID,18.5116,VALID,346,VALID,0.113368,
2005-07-05, 03:21:00,VALID,916.716,VALID,0,VALID,86.4424,VALID,0.0169808,VALID,18.5632,VALID,346,VALID,0.165128,
2005-07-05, 03:22:00,VALID,916.71,VALID,0,VALID,86.5111,VALID,0,VALID,18.6283,VALID,346,VALID,0.239139,
2005-07-05, 03:23:00,VALID,916.706,VALID,0,VALID,86.094,VALID,0.0169808,VALID,18.6995,VALID,346,VALID,0.240371,
2005-07-05, 03:24:00,VALID,916.701,VALID,0,VALID,87.8348,VALID,0.0169808,VALID,18.7472,VALID,346,VALID,0.0764101,
2005-07-05, 03:25:00,VALID,916.704,VALID,0,VALID,85.7926,VALID,0,VALID,18.7117,VALID,346,VALID,0.227471,
2005-07-05, 03:26:00,VALID,916.721,VALID,0,VALID,86.45,VALID,-0.0169808,VALID,18.7569,VALID,346,VALID,0.269259,
2005-07-05, 03:27:00,VALID,916.732,VALID,0,VALID,85.8778,VALID,-0.0679233,VALID,18.7487,VALID,346,VALID,0.368096,
2005-07-05, 03:28:00,VALID,916.733,VALID,0,VALID,85.4455,VALID,-0.0679233,VALID,18.7454,VALID,354,VALID,0.431868,
2005-07-05, 03:29:00,VALID,916.749,VALID,0,VALID,86.0342,VALID,-0.101885,VALID,18.765,VALID,355,VALID,0.187119,
2005-07-05, 03:30:00,VALID,916.756,VALID,0,VALID,85.5396,VALID,-0.101885,VALID,18.7745,VALID,352,VALID,0.570313,
2005-07-05, 03:31:00,VALID,916.75,VALID,0,VALID,85.4162,VALID,-0.101885,VALID,18.8065,VALID,355,VALID,0.425145,